Regional Weather Roundup
Issued by NWS

Home | Current Version | Previous Version | Text Only | Print | Product List | Glossary On
Versions: 1 2 3 4 5 6 7 8 9 10 11 12 13 14 15 16 17 18 19 20 21 22 23 24 25 26 27 28 29 30 31 32 33 34 35 36 37 38 39 40 41 42 43 44 45 46 47 48 49 50
000
ASUS43 KLMK 290010
RWRKY
NATIONAL WEATHER SERVICE LOUISVILLE KY
700 PM EST FRI NOV 28 2014

NOTE "FAIR" INDICATES FEW OR NO CLOUDS BELOW 12,000 FEET
WITH NO SIGNIFICANT WEATHER AND/OR OBSTRUCTIONS TO VISIBILITY.

KYZ001>023-026-027-061>063-070>075-290100-
WESTERN AND SOUTH CENTRAL KENTUCKY

CITY           SKY/WX    TMP DP  RH WIND       PRES   REMARKS
PADUCAH        PTCLDY    44  27  51 S8        30.07F
HENDERSON      CLEAR     39  27  60 S9        30.09S WCI  33
OWENSBORO      CLEAR     38  27  65 S14       30.11F WCI  30
HOPKINSVILLE   PTCLDY    44  24  46 S8        30.13F
BOWLING GREEN  CLEAR     36  21  54 SE6       30.17F WCI  31
GLASGOW        CLEAR     38  20  49 S3        30.17F
$$

KYZ024-025-028>034-038-045-046-053-290100-
NORTH CENTRAL KENTUCKY

CITY           SKY/WX    TMP DP  RH WIND       PRES   REMARKS
LOUISVILLE/SDF CLOUDY    37  20  50 SE8       30.15F WCI  31
LOUISVILLE/LOU PTCLDY    36  20  52 SE7       30.15F WCI  30
FORT KNOX      CLEAR     35  22  58 SE7       30.13F WCI  30
$$

KYZ035>037-039>044-047>052-055>060-089>105-290100-
NORTHEAST KENTUCKY

CITY           SKY/WX    TMP DP  RH WIND       PRES   REMARKS
LEXINGTON      CLEAR     31  18  58 SE8       30.18F WCI  23
COVINGTON      MOCLDY    32  16  51 SE12      30.15F WCI  23
FRANKFORT      CLEAR     32  18  56 SE6       30.17F WCI  26
$$

KYZ054-064>069-076>088-106>120-290100-
SOUTHEAST KENTUCKY

CITY           SKY/WX    TMP DP  RH WIND       PRES   REMARKS
JACKSON        CLEAR     31  15  52 CALM      30.21F
LONDON         CLEAR     34  18  52 S3        30.22S
SOMERSET       CLEAR     32  18  55 CALM      30.23S
MIDDLESBORO    NOT AVBL
MONTICELLO     CLEAR     37  19  48 S5        30.24S WCI  33
$$



USA.gov is the U.S. government's official web portal to all federal, state and local government web resources and services.